"America/Chicago Time","Lifetime Energy (kWh)","Power (W)","AC Volts RMS (V) ","AC Amps RMS (mA)","Grid Frequency (Hz)","Inverter Temperature (C)"
"09/02/12 10:31:12","199.8758","146.2","217.57","666","60.03","33"
"09/02/12 10:36:12","199.8873","148.8","217.78","680","60.03","34"
"09/02/12 10:41:12","199.8989","149.3","217.04","685","60.03","35"
"09/02/12 10:46:12","199.9106","152.7","217.15","701","60.0","35"
"09/02/12 10:51:13","199.9226","153.6","217.44","709","60.03","36"
"09/02/12 10:56:12","199.9346","156.1","217.35","716","60.03","36"
"09/02/12 11:01:12","199.9469","158.4","217.15","723","60.03","36"
"09/02/12 11:06:12","199.9593","160.3","216.92","736","60.03","37"
"09/02/12 11:11:12","199.9718","161.9","217.38","743","60.03","37"
"09/02/12 11:16:13","199.9844","161.0","217.97","730","60.0","38"
"09/02/12 11:21:13","199.9968","155.7","217.41","714","60.03","37"
"09/02/12 11:26:11","200.0088","155.9","217.77","711","60.0","37"
"09/02/12 11:31:12","200.0215","165.4","217.17","755","60.0","38"
"09/02/12 11:36:12","200.0344","162.8","217.67","742","60.03","38"
"09/02/12 11:41:13","200.0473","167.1","218.1","760","60.0","38"
"09/02/12 11:46:13","200.0599","161.7","217.65","738","60.03","38"
"09/02/12 11:51:13","200.0722","156.8","217.31","718","60.03","38"
"09/02/12 11:56:11","200.0837","145.7","217.03","670","60.03","37"
"09/02/12 12:01:11","200.0956","147.3","217.38","680","60.03","37"
"09/02/12 12:06:13","200.1064","133.2","216.84","620","60.03","37"
"09/02/12 12:11:12","200.1171","141.9","216.82","658","60.0","37"
"09/02/12 12:16:12","200.1289","168.8","217.51","771","60.0","37"
"09/02/12 12:21:12","200.1413","156.1","217.03","714","60.07","37"
"09/02/12 12:26:11","200.1538","161.6","217.58","737","60.0","38"
"09/02/12 12:31:13","200.1668","163.3","217.71","744","60.03","38"
"09/02/12 12:36:12","200.1797","159.6","217.8","728","60.03","38"
"09/02/12 12:41:12","200.1897","92.0","215.92","446","60.03","37"
"09/02/12 12:46:12","200.1991","162.5","216.75","745","60.0","37"
"09/02/12 12:51:12","200.2114","156.1","216.57","718","60.03","38"
"09/02/12 12:56:12","200.2238","164.5","217.09","747","60.03","38"
"09/02/12 13:01:11","200.2366","165.9","216.93","765","60.03","38"
"09/02/12 13:06:12","200.2495","167.9","216.9","768","60.0","38"
"09/02/12 13:11:11","200.2623","163.8","217.12","749","60.0","39"
"09/02/12 13:16:13","200.2754","168.9","217.45","773","60.03","39"
"09/02/12 13:21:13","200.2885","166.7","217.53","759","60.03","40"
"09/02/12 13:26:12","200.3012","163.8","217.17","751","60.03","41"
"09/02/12 13:31:12","200.314","163.8","217.48","750","60.0","40"
"09/02/12 13:36:11","200.3266","161.3","217.42","738","60.0","40"
"09/02/12 13:41:12","200.3389","151.3","217.23","692","60.0","40"
"09/02/12 13:46:13","200.3503","137.4","216.75","638","60.0","40"
"09/02/12 13:51:12","200.361","133.9","217.03","623","60.03","40"
"09/02/12 13:56:11","200.373","158.1","217.64","724","60.0","40"
"09/02/12 14:01:12","200.3855","159.2","217.16","728","60.03","40"
"09/02/12 14:06:11","200.3977","155.3","217.19","715","60.03","40"
"09/02/12 14:11:13","200.4097","149.9","217.03","690","60.03","40"
"09/02/12 14:16:12","200.4208","143.0","217.52","658","60.03","39"
"09/02/12 14:21:13","200.4321","150.1","217.42","691","60.03","40"
"09/02/12 14:26:13","200.4437","149.9","217.17","691","60.03","39"
"09/02/12 14:31:12","200.4552","143.5","217.06","662","60.03","39"
"09/02/12 14:36:13","200.4663","138.6","216.95","641","60.0","39"
"09/02/12 14:41:13","200.4768","139.4","216.88","648","60.0","39"
"09/02/12 14:46:12","200.4878","143.3","216.23","665","60.03","39"
"09/02/12 14:51:13","200.4982","115.2","215.46","540","60.0","39"
"09/02/12 14:56:13","200.508","141.1","216.41","650","60.03","38"
"09/02/12 15:01:13","200.5188","136.3","216.31","638","60.07","38"
"09/02/12 15:06:11","200.5293","132.0","216.55","616","60.03","38"
"09/02/12 15:11:13","200.5396","131.7","216.87","613","60.03","38"
"09/02/12 15:16:11","200.5498","129.8","216.38","606","60.03","38"
"09/02/12 15:21:12","200.5599","126.4","215.89","592","60.0","38"
"09/02/12 15:26:11","200.5696","125.3","216.31","584","60.0","38"
"09/02/12 15:31:12","200.5793","121.0","216.37","564","60.03","37"
"09/02/12 15:36:11","200.5885","119.5","217.46","559","60.0","37"
"09/02/12 15:41:12","200.5977","115.5","216.84","545","60.03","37"
"09/02/12 15:46:12","200.6066","113.3","215.84","538","60.0","36"
"09/02/12 15:51:11","200.6153","110.0","215.32","519","60.0","36"
"09/02/12 15:56:12","200.6237","103.3","215.85","491","60.03","36"
"09/02/12 16:01:13","200.6312","87.6","215.78","423","60.03","36"
"09/02/12 16:06:11","200.6381","89.2","215.18","433","60.03","35"
"09/02/12 16:11:13","200.6454","94.0","215.47","457","60.0","35"
"09/02/12 16:16:12","200.6524","84.4","215.38","410","60.0","35"
"09/02/12 16:21:12","200.6578","45.1","215.0","287","60.03","34"
"09/02/12 16:26:13","200.6603","21.7","214.69","31","60.0","33"
"09/02/12 16:31:13","200.6619","12.7","214.49","93","60.03","32"
"09/02/12 16:36:11","200.6641","32.7","213.86","201","60.03","32"
"09/02/12 16:41:12","200.6662","22.6","214.31","86","60.03","31"
"09/02/12 16:46:11","200.6683","30.0","214.8","47","60.0","30"
"09/02/12 16:51:12","200.6705","29.3","214.84","151","60.03","30"
"09/02/12 16:56:11","200.6729","37.3","214.65","98","60.03","29"
"09/02/12 17:01:12","200.6773","75.4","215.39","375","60.03","30"
"09/02/12 17:06:12","200.6831","73.3","215.34","367","60.03","30"
"09/02/12 17:11:13","200.6886","66.3","215.63","334","60.0","30"
"09/02/12 17:16:13","200.693","56.5","214.89","369","60.03","30"
"09/02/12 17:21:13","200.6969","54.3","214.7","140","60.0","30"
"09/02/12 17:26:12","200.7003","47.3","214.88","307","60.0","30"
"09/02/12 17:31:12","200.7033","31.1","213.33","80","60.07","30"
"09/02/12 17:36:11","200.7059","35.4","213.51","271","60.03","30"
"09/02/12 17:41:11","200.7082","31.0","214.07","74","60.03","29"
"09/02/12 17:46:11","200.7102","26.8","213.91","29","60.03","29"
"09/02/12 17:51:13","200.7119","12.8","214.35","56","60.03","29"
"09/02/12 17:56:12","200.7132","25.6","214.15","87","60.0","28"
"09/02/12 18:01:12","200.7144","17.4","213.42","157","60.03","28"
"09/02/12 18:06:11","200.7153","14.3","214.04","11","60.03","28"
"09/02/12 18:11:12","200.716","0.0","213.65","0","60.03","28"
"09/02/12 18:16:12","200.7164","11.6","214.11","2","60.0","27"
"09/02/12 18:21:13","200.7167","0.0","213.69","0","60.03","27"
"09/02/12 18:26:13","200.7169","0.0","213.87","0","60.03","27"
"09/02/12 18:31:13","200.7171","6.2","214.05","165","60.03","26"
"09/02/12 18:36:13","200.7172","0.0","214.12","0","60.03","26"
"09/02/12 18:41:18","200.7175","0.0","213.22","0","60.0","26"
"09/02/12 18:46:12","200.7178","0.0","212.62","0","60.0","26"
"09/02/12 18:56:12","200.7183","0.0","213.07","0","60.0","26"
"09/03/12 07:43:41","200.7183","0.0","213.71","0","60.03","20"
"09/03/12 07:48:38","200.7186","13.6","213.21","0","60.0","21"
"09/03/12 07:53:40","200.719","10.6","214.63","21","60.03","22"
"09/03/12 07:58:35","200.7198","15.2","214.2","73","60.03","22"
"09/03/12 08:03:36","200.7204","0.0","213.71","0","60.0","22"
"09/03/12 08:08:35","200.7209","1.9","212.78","0","60.0","22"
"09/03/12 08:13:35","200.7219","22.3","214.58","207","60.0","23"
"09/03/12 08:18:35","200.7235","13.8","213.44","164","60.0","23"
"09/03/12 08:23:35","200.7251","13.8","214.43","243","60.0","23"
"09/03/12 08:28:35","200.7272","36.6","214.48","279","60.0","24"
"09/03/12 08:33:35","200.7304","34.6","214.55","199","60.0","24"
"09/03/12 08:38:35","200.7327","36.8","213.58","273","60.0","25"
"09/03/12 08:43:35","200.736","73.3","215.03","366","60.0","25"
"09/03/12 08:48:35","200.7414","76.7","214.46","380","60.0","26"
"09/03/12 08:53:35","200.747","37.4","214.25","174","60.03","27"
"09/03/12 08:58:35","200.7499","66.5","215.42","335","60.0","28"
"09/03/12 09:03:35","200.7546","65.8","214.95","335","60.03","28"
"09/03/12 09:08:34","200.7582","47.7","214.53","362","60.0","28"
"09/03/12 09:13:36","200.7606","18.4","213.11","186","60.03","28"
"09/03/12 09:18:36","200.763","42.0","214.07","341","60.0","28"
"09/03/12 09:23:35","200.7656","22.1","213.27","217","60.0","28"
"09/03/12 09:28:36","200.7679","37.9","214.12","213","60.0","28"
"09/03/12 09:33:36","200.7714","47.8","213.77","162","60.0","29"
"09/03/12 09:38:36","200.7741","46.0","214.14","264","60.0","29"
"09/03/12 09:43:35","200.7782","49.5","214.64","231","60.0","29"
"09/03/12 09:48:35","200.7815","41.8","213.76","318","60.03","29"
"09/03/12 09:53:35","200.784","32.8","212.95","166","60.0","30"
"09/03/12 09:58:35","200.7861","13.8","213.67","213","60.03","30"
"09/03/12 10:03:36","200.788","34.0","213.42","214","60.0","30"
"09/03/12 10:08:36","200.7898","27.9","213.18","99","59.96","30"
"09/03/12 10:13:36","200.7913","22.6","213.03","35","60.03","30"
"09/03/12 10:18:36","200.793","22.8","213.78","57","60.0","29"
"09/03/12 10:23:35","200.7948","34.1","213.89","163","60.0","29"
"09/03/12 10:28:36","200.7973","26.9","213.74","240","60.03","29"
"09/03/12 10:33:36","200.7996","18.3","213.87","128","60.0","30"
"09/03/12 10:38:36","200.802","30.6","214.6","275","60.03","30"
"09/03/12 10:43:35","200.8048","35.1","214.75","214","60.0","30"
"09/03/12 10:48:35","200.8083","60.0","215.51","342","60.03","30"
"09/03/12 10:53:36","200.8126","69.3","216.64","195","60.03","30"
"09/03/12 10:58:36","200.8177","71.1","216.05","356","60.03","30"
"09/03/12 11:03:35","200.8246","114.0","217.65","534","60.03","31"
"09/03/12 11:08:36","200.8351","115.3","217.17","544","60.03","32"
"09/03/12 11:13:35","200.8444","95.8","216.26","462","60.0","32"
"09/03/12 11:18:36","200.8514","43.9","215.09","403","60.0","32"
"09/03/12 11:23:36","200.8554","51.2","215.8","294","60.03","32"
"09/03/12 11:28:36","200.8586","33.2","215.13","223","60.0","32"
"09/03/12 11:33:36","200.8614","44.2","214.83","356","60.0","32"
"09/03/12 11:38:35","200.8658","45.2","215.95","125","60.03","32"
"09/03/12 11:43:35","200.8693","44.0","215.32","385","60.0","32"
"09/03/12 11:48:37","200.8739","58.2","214.73","342","60.0","32"
"09/03/12 11:53:36","200.8783","54.6","215.18","245","60.0","31"
"09/03/12 11:58:35","200.8828","40.2","215.03","278","60.03","32"
"09/03/12 12:03:36","200.8863","52.7","214.99","334","60.03","32"
"09/03/12 12:08:35","200.8906","47.3","215.13","414","60.07","32"
"09/03/12 12:13:35","200.894","38.4","214.3","164","60.03","31"
"09/03/12 12:18:35","200.9006","101.1","216.08","481","60.03","31"
"09/03/12 12:23:35","200.9085","65.5","214.88","331","60.03","31"
"09/03/12 12:28:35","200.9146","87.4","214.72","425","60.0","32"
"09/03/12 12:33:36","200.9195","55.7","214.55","116","60.0","31"
"09/03/12 12:38:35","200.9263","185.0","218.23","837","60.03","32"
"09/03/12 12:43:36","200.9395","142.4","216.38","662","60.03","32"
"09/03/12 12:48:36","200.9499","184.0","217.45","832","60.03","33"
"09/03/12 12:53:36","200.9613","172.0","218.07","780","60.03","34"
"09/03/12 12:58:35","200.9715","44.6","214.99","397","60.03","35"
"09/03/12 13:03:36","200.9805","185.9","216.87","850","60.03","36"
"09/03/12 13:08:36","200.9935","191.1","217.82","868","60.03","37"
"09/03/12 13:13:36","201.0062","192.5","217.44","871","60.0","37"
"09/03/12 13:18:35","201.0169","170.4","217.01","780","60.03","36"
"09/03/12 13:23:35","201.0311","185.8","216.97","848","60.03","38"
"09/03/12 13:28:36","201.0448","177.0","216.43","803","60.03","38"
"09/03/12 13:33:35","201.0584","167.6","216.27","767","60.0","38"
"09/03/12 13:38:35","201.0711","156.2","216.1","724","60.03","38"
"09/03/12 13:43:35","201.084","169.6","217.01","773","60.03","39"
"09/03/12 13:48:35","201.0973","176.6","216.86","797","60.0","39"
"09/03/12 13:53:35","201.1106","168.6","216.97","769","60.0","39"
"09/03/12 13:58:36","201.124","170.7","217.9","779","60.03","38"
"09/03/12 14:03:36","201.1371","165.9","217.34","753","60.03","39"
"09/03/12 14:08:35","201.1499","163.3","217.36","746","60.03","39"
"09/03/12 14:13:37","201.1626","162.1","217.54","745","60.03","40"
"09/03/12 14:18:36","201.1751","161.1","216.92","746","60.03","41"
"09/03/12 14:23:36","201.187","110.3","216.18","525","60.03","40"
"09/03/12 14:28:36","201.1946","85.0","216.19","414","60.03","39"
"09/03/12 14:33:35","201.2017","79.6","215.05","393","60.03","38"
"09/03/12 14:38:36","201.21","127.5","215.88","599","60.03","38"
"09/03/12 14:43:36","201.2165","62.6","213.59","322","60.0","37"
"09/03/12 14:48:35","201.2219","77.6","214.6","385","60.03","37"
"09/03/12 14:53:35","201.227","42.0","213.91","173","60.03","36"
"09/03/12 14:58:35","201.2306","42.6","213.56","330","60.03","36"
"09/03/12 15:03:35","201.2343","53.5","214.04","349","60.03","35"
"09/03/12 15:08:36","201.2389","98.6","215.28","472","60.03","34"
"09/03/12 15:13:36","201.246","50.7","213.44","200","60.03","34"
"09/03/12 15:18:35","201.2511","140.4","215.74","647","60.0","34"
"09/03/12 15:23:35","201.2614","140.7","215.85","658","60.0","35"
"09/03/12 15:28:36","201.2719","123.8","214.71","585","60.03","36"
"09/03/12 15:33:36","201.2805","127.7","214.75","602","60.03","36"
"09/03/12 15:38:36","201.2899","117.6","214.49","559","60.0","36"
"09/03/12 15:43:36","201.2992","117.9","215.15","561","60.03","36"
"09/03/12 15:48:35","201.3083","113.8","215.2","538","60.0","36"
"09/03/12 15:53:36","201.317","109.9","214.88","527","60.03","36"
"09/03/12 15:58:35","201.3254","107.3","214.45","514","60.03","37"
"09/03/12 16:03:36","201.3336","104.6","214.26","503","60.0","36"
"09/03/12 16:08:35","201.3416","100.8","213.53","490","60.0","36"
"09/03/12 16:13:35","201.3493","97.0","213.55","472","60.03","36"
"09/03/12 16:18:35","201.3568","94.0","213.59","458","60.0","36"
"09/03/12 16:23:35","201.3639","90.3","213.22","439","60.03","36"
"09/03/12 16:28:35","201.3708","86.7","213.2","426","60.03","35"
"09/03/12 16:33:35","201.3773","82.1","213.23","408","60.0","35"
"09/03/12 16:38:36","201.3836","78.2","213.08","392","60.0","35"
"09/03/12 16:43:35","201.3895","73.9","214.22","368","60.0","35"
"09/03/12 16:48:35","201.3951","70.2","213.34","355","60.03","34"
"09/03/12 16:53:35","201.4003","66.1","213.51","335","60.03","34"
"09/03/12 16:58:36","201.4053","62.1","213.81","318","60.03","34"
"09/03/12 17:03:35","201.4094","49.1","213.11","406","60.0","33"
"09/03/12 17:08:36","201.4133","44.3","214.23","121","60.03","33"
"09/03/12 17:13:36","201.4172","51.1","213.83","117","60.03","33"
"09/03/12 17:18:36","201.4209","40.9","213.63","123","60.0","33"
"09/03/12 17:23:36","201.4242","46.6","213.94","230","60.0","33"
"09/03/12 17:28:36","201.4272","31.3","213.07","160","60.03","32"
"09/03/12 17:33:35","201.4299","28.2","213.55","286","60.03","32"
"09/03/12 17:38:35","201.4323","25.5","213.57","106","60.03","32"
"09/03/12 17:43:36","201.4343","34.3","213.58","118","60.03","32"
"09/03/12 17:48:36","201.4361","28.6","213.1","54","60.0","32"
"09/03/12 17:53:37","201.4376","17.4","212.42","144","60.03","31"
"09/03/12 17:58:35","201.4388","12.9","213.14","199","60.03","31"
"09/03/12 18:03:36","201.4398","14.3","212.79","65","60.0","31"
"09/03/12 18:08:35","201.4406","11.9","213.04","0","60.03","30"
"09/03/12 18:13:37","201.4412","0.0","212.36","26","60.0","30"
"09/03/12 18:18:35","201.4416","6.3","212.62","226","60.03","30"
"09/03/12 18:23:35","201.4419","0.0","212.14","0","60.03","30"
"09/03/12 18:28:35","201.4421","0.0","212.45","0","60.03","29"
"09/03/12 18:33:35","201.4421","0.0","212.03","0","60.0","28"
"09/03/12 18:38:35","201.4421","0.0","212.57","0","60.03","27"
"09/03/12 18:43:35","201.4421","0.0","213.08","0","60.0","27"
"09/04/12 06:58:36","201.4424","0.0","214.3","0","60.07","18"
"09/04/12 07:03:35","201.4428","7.2","214.05","252","60.03","19"
"09/04/12 07:08:36","201.4433","11.5","213.78","77","60.03","19"
"09/04/12 07:13:37","201.444","9.1","214.07","158","60.03","19"
"09/04/12 07:18:36","201.445","10.7","214.66","13","60.03","19"
"09/04/12 07:23:35","201.4461","13.3","214.18","111","60.03","20"
"09/04/12 07:28:36","201.4474","13.0","214.35","199","60.0","20"
"09/04/12 07:33:36","201.4491","23.9","214.29","276","60.03","20"
"09/04/12 07:38:37","201.4509","23.8","214.53","37","60.0","21"
"09/04/12 07:43:37","201.4531","33.7","214.38","208","60.03","22"
"09/04/12 07:48:36","201.4554","38.1","214.23","281","60.03","22"
"09/04/12 07:53:36","201.4582","32.9","213.07","235","60.0","23"
"09/04/12 07:58:37","201.4613","36.8","214.57","94","60.03","24"
"09/04/12 08:03:37","201.4647","52.7","214.46","348","60.07","24"
"09/04/12 08:08:36","201.4684","45.7","213.45","158","60.03","25"
"09/04/12 08:13:35","201.4723","64.7","214.99","167","60.0","26"
"09/04/12 08:18:35","201.4761","44.0","214.39","248","60.0","26"
"09/04/12 08:23:35","201.48","40.8","214.72","160","60.03","27"
"09/04/12 08:28:36","201.4839","61.6","215.1","333","60.0","28"
"09/04/12 08:33:37","201.4891","73.0","215.58","367","60.03","28"
"09/04/12 08:38:36","201.495","77.7","215.56","381","60.0","29"
"09/04/12 08:43:35","201.5011","82.0","215.73","403","60.0","29"
"09/04/12 08:48:36","201.5077","86.0","216.03","418","60.03","30"
"09/04/12 08:53:37","201.5146","89.9","215.34","438","60.03","31"
"09/04/12 08:58:35","201.5217","93.2","215.15","451","60.0","31"
"09/04/12 09:03:36","201.5291","96.5","216.33","465","60.0","32"
"09/04/12 09:08:36","201.5367","100.0","216.12","478","60.03","32"
"09/04/12 09:13:36","201.5446","103.7","216.46","493","60.03","33"
"09/04/12 09:18:37","201.5528","106.8","216.33","508","60.0","34"
"09/04/12 09:23:36","201.5612","109.7","215.76","518","60.0","35"
"09/04/12 09:28:37","201.5699","112.5","215.35","534","60.0","36"
"09/04/12 09:33:35","201.5787","115.2","215.91","542","60.0","37"
"09/04/12 09:38:35","201.5877","117.6","216.1","556","60.0","38"
"09/04/12 09:43:36","201.597","120.6","215.83","569","60.0","39"
"09/04/12 09:48:37","201.6066","123.1","215.48","579","60.03","40"
"09/04/12 09:53:35","201.6162","125.1","216.18","588","60.03","40"
"09/04/12 09:58:36","201.6261","127.7","214.73","598","60.0","41"
"09/04/12 10:03:36","201.6362","131.1","215.3","615","60.03","42"
"09/04/12 10:08:36","201.6465","134.8","215.24","628","60.0","42"
"09/04/12 10:13:36","201.6571","137.5","216.79","640","60.03","42"
"09/04/12 10:18:36","201.6679","141.1","216.73","651","60.03","42"
"09/04/12 10:23:37","201.6791","143.1","216.73","661","60.0","42"
"09/04/12 10:28:36","201.6902","145.3","216.64","669","60.03","41"
"09/04/12 10:33:36","201.7017","147.2","216.49","682","60.0","41"
"09/04/12 10:38:37","201.7132","149.0","216.03","692","60.03","41"
"09/04/12 10:43:36","201.7249","150.0","216.11","693","60.0","42"
"09/04/12 10:48:35","201.7366","151.5","217.08","695","60.0","42"
"09/04/12 10:53:35","201.7484","153.1","217.48","703","60.0","43"
"09/04/12 10:58:36","201.7604","154.3","217.35","705","60.03","43"
"09/04/12 11:03:35","201.7725","155.1","218.07","710","60.03","44"
"09/04/12 11:08:36","201.7847","157.5","218.23","720","60.03","44"
"09/04/12 11:13:36","201.7971","158.6","218.12","723","60.03","44"
"09/04/12 11:18:36","201.8094","160.3","218.18","732","60.0","45"
"09/04/12 11:23:36","201.822","160.3","217.51","735","60.03","45"
"09/04/12 11:28:36","201.8345","162.3","216.29","747","60.03","45"
"09/04/12 11:33:37","201.8472","162.0","217.14","741","60.0","46"
"09/04/12 11:38:36","201.8598","162.8","217.08","750","60.03","46"
"09/04/12 11:43:36","201.8726","164.6","216.82","753","60.03","46"
"09/04/12 11:48:36","201.8854","165.8","217.61","758","60.03","46"
"09/04/12 11:53:36","201.8984","167.6","217.33","765","60.03","46"
"09/04/12 11:58:35","201.9114","167.1","217.82","762","60.03","46"
"09/04/12 12:03:36","201.9244","168.4","217.31","762","60.03","46"
"09/04/12 12:08:36","201.9376","168.3","216.7","774","60.0","46"
"09/04/12 12:13:35","201.9507","168.6","217.45","771","60.03","46"
"09/04/12 12:18:37","201.9639","170.4","217.42","776","60.0","45"
"09/04/12 12:23:37","201.9771","169.0","217.51","775","60.03","45"
"09/04/12 12:28:37","201.9903","171.0","217.82","778","60.0","45"
"09/04/12 12:33:35","202.0036","171.1","217.88","778","60.0","45"
"09/04/12 12:38:36","202.017","171.9","218.28","780","60.0","45"
"09/04/12 12:43:37","202.0305","170.6","216.31","779","60.03","45"
"09/04/12 12:48:37","202.0436","189.9","216.5","861","60.03","45"
"09/04/12 12:53:35","202.0543","126.3","215.4","596","60.03","44"
"09/04/12 12:58:36","202.0643","109.1","215.42","523","60.03","43"
"09/04/12 13:03:37","202.0763","175.6","217.27","799","60.03","43"
"09/04/12 13:08:37","202.0881","135.7","217.07","631","60.03","43"
"09/04/12 13:13:36","202.102","181.5","217.58","820","60.0","44"
"09/04/12 13:18:36","202.1156","171.5","217.31","783","59.96","44"
"09/04/12 13:23:36","202.1289","169.7","216.77","778","60.03","43"
"09/04/12 13:28:35","202.142","167.1","217.17","764","60.0","43"
"09/04/12 13:33:36","202.155","165.3","217.47","753","60.0","43"
"09/04/12 13:38:36","202.1678","162.4","216.75","746","60.03","44"
"09/04/12 13:43:36","202.1805","161.5","216.38","741","60.03","44"
"09/04/12 13:48:37","202.193","160.1","216.64","734","60.03","44"
"09/04/12 13:53:37","202.2054","158.3","217.56","725","60.03","44"
"09/04/12 13:58:36","202.2177","158.3","217.82","722","60.0","44"
"09/04/12 14:03:36","202.23","156.7","217.73","717","60.03","44"
"09/04/12 14:08:36","202.2421","155.4","217.36","716","60.03","44"
"09/04/12 14:13:37","202.2542","153.5","217.34","706","60.03","43"
"09/04/12 14:18:37","202.2662","152.2","217.32","700","60.0","43"
"09/04/12 14:23:37","202.278","150.5","217.23","693","60.0","43"
"09/04/12 14:28:37","202.2897","149.4","216.6","693","60.03","43"
"09/04/12 14:33:37","202.3013","147.9","216.42","685","60.03","43"
"09/04/12 14:38:35","202.3127","146.4","216.35","674","60.03","42"
"09/04/12 14:43:37","202.3241","143.7","216.28","669","60.0","42"
"09/04/12 14:48:35","202.3351","141.9","216.76","658","60.0","41"
"09/04/12 14:53:36","202.3461","139.9","216.92","644","60.03","41"
"09/04/12 14:58:37","202.3569","137.5","216.87","639","60.03","40"
"09/04/12 15:03:36","202.3676","135.2","216.25","631","60.03","40"
"09/04/12 15:08:37","202.378","132.6","215.81","619","60.03","40"
"09/04/12 15:13:37","202.3882","130.5","215.99","610","60.03","39"
"09/04/12 15:18:35","202.3982","128.1","215.82","596","60.0","39"
"09/04/12 15:23:35","202.4081","125.1","216.0","587","60.03","38"
"09/04/12 15:28:36","202.4178","122.3","215.98","578","60.03","38"
"09/04/12 15:33:37","202.4272","119.5","215.42","566","60.0","38"
"09/04/12 15:38:37","202.4364","116.1","214.91","549","60.03","37"
"09/04/12 15:43:36","202.4453","113.6","216.01","538","60.0","37"
"09/04/12 15:48:36","202.454","110.9","215.4","525","60.03","37"
"09/04/12 15:53:36","202.4625","107.6","215.74","514","60.0","36"
"09/04/12 15:58:36","202.4694","68.5","215.91","341","60.03","35"
"09/04/12 16:03:37","202.4776","104.4","216.03","495","60.0","35"
"09/04/12 16:08:35","202.4854","98.5","216.13","473","60.0","35"
"09/04/12 16:13:37","202.4911","97.9","215.57","468","60.03","34"
"09/04/12 16:18:37","202.4984","91.6","215.14","444","60.0","34"
"09/04/12 16:23:35","202.5052","86.9","214.89","425","60.0","33"
"09/04/12 16:28:35","202.5118","82.5","215.01","403","60.03","33"
"09/04/12 16:33:37","202.5181","78.9","214.83","390","60.03","32"
"09/04/12 16:38:35","202.524","74.7","215.3","375","60.03","32"
"09/04/12 16:43:37","202.5297","69.9","214.31","355","60.03","32"
"09/04/12 16:48:37","202.535","66.1","214.57","337","60.03","32"
"09/04/12 16:53:37","202.54","61.8","214.31","318","60.03","31"
"09/04/12 16:58:36","202.5441","45.7","215.4","194","60.03","31"
"09/04/12 17:03:36","202.548","44.2","214.64","290","60.0","31"
"09/04/12 17:08:37","202.5519","44.5","214.35","81","60.03","30"
"09/04/12 17:13:37","202.5557","51.1","214.5","369","60.0","30"
"09/04/12 17:18:36","202.559","41.2","214.12","334","60.0","29"
"09/04/12 17:23:35","202.5622","34.2","213.51","220","60.0","29"
"09/04/12 17:28:35","202.5649","39.4","213.48","295","60.03","28"
"09/04/12 17:33:35","202.5675","34.8","213.62","273","60.03","28"
"09/04/12 17:38:36","202.5696","20.1","213.21","74","60.0","28"